STARLINK-30432, 57864

Orbit data source: Space-Track

STARLINK-30432, 57864 is a payload satellite owned by SpaceX/Seattle (US) in LEO that was launched on Sat, 16 Sep 2023 UTC via an FALCON 9 launch vehicle from the Air Force Eastern Test Range (AFETR). Payload-class satellites include a variety of spacecraft equipped with specific instruments for various scientific and technological missions. These include communications satellites like Starlink; space stations such as the ISS; scientific satellites like the Hubble; Earth observation satellites from companies like Planet Labs, Umbra, and HawkEye 360; GPS; miniature CubeSats for education and research; and military/defense satellites.

Loading next visibility...
Identifier
57864, 2023-144A
Orbit
LEO
Country
Flag of USUS
Related business
Manufacturer
SpaceX/Seattle
Mission
Operational Commercial Communications
Bus & Motor
STARLINK V2M, Unknown motor
Mass
730 kg wet, ~700 kg dry
Launch date (UTC)
2023-09-16 (2 years ago)
Launch vehicle
FALCON 9
Launch site
Air Force Eastern Test Range (AFETR)
Object type
Payload
Rocket body
Debris
Shape & HBR
Box + 2 Pan, 17.7 m
Radar Cross Section
33.884 m², Large (>1 m²)

Expand to show TLE details & history
Last TLE update: 1 day ago

TLE from 1 day ago
0 STARLINK-30432
1 57864U 23144A   25348.11936502  .00000153  00000-0  26365-4 0  9998
2 57864  43.0042  32.8772 0000901 267.6433  92.4306 15.02531626124692
Epoch: 2025-12-14T02:51Z
TLE epoch observation values (Epoch: 2025-12-14T02:51:53.137Z)
Latitude
-0.00005°
Longitude
-93.13111°
Altitude
558.898 km
Speed
7.584 km/s
True Right ascension
02h 11m 30s
True Declination
0° 00' 00"
Sunlit
Object was in full shadow at epoch
Visualization orbit readout
Latitude
Unknown
Longitude
Unknown
Altitude
Unknown
Speed
Unknown
Apparent Right ascension
Unknown
Apparent Declination
Unknown
Sunlit
N/A
Visualization observer readout
Local Sidereal Time
13:25:37
Azimuth
Unknown
Elevation
Unknown
Doppler factor
Unknown
Orbital elements
Apogee altitude
561.641 km
Perigee altitude
560.391 km
Semi-major axis
6,939.153 km
Eccentricity
0.00009
Inclination
43.0042°
RAAN
32.8772°
Arg. of periapsis
267.6433°
True anomaly
92.44092°
Mean anomaly
92.4306°
Eccentric anomaly
92.43576°
Mean motion
3.75477 °/min
Orbital period
95.88 mins
BSTAR
0.000026365
Loading maneuver chart data...
Computing Atmospheric mass density...
Loading historical data...
Loading historical data...
Loading historical data...
Loading historical data...
Loading historical data...
Loading historical data...
Loading historical data...

Documentation

Showing up to 5 results
|